Terminal Aerodrome Forecast
Issued by NWS

Home | Current Version | Previous Version | Text Only | Print | Product List | Glossary On
Versions: 1 2 3 4 5 6 7 8 9 10 11 12 13 14 15 16 17 18 19 20 21 22 23 24 25 26 27 28 29 30 31 32 33 34 35 36
000
FTPQ31 PGUM 290300 AAA
TAFPQ
TAF AMD

PGRO 290314Z 2903/2924 30015KT P6SM VCSH SCT016 SCT040 BKN100
      TEMPO 2903/2907 28015G25KT 4SM SHRA SCT014 BKN025=

USA.gov is the U.S. government's official web portal to all federal, state and local government web resources and services.